Regional Weather Roundup
Issued by NWS Midland/Odessa, TX

Skip options and go directly to product.
Home | Oldest Version | Next Version | Current Version | All | Text Only | Save Text | Print | Product List | Glossary On

Skip product version selection by date and time.   
691
ASUS44 KMAF 051501
RWRMAF
MIDLAND AREA WEATHER ROUNDUP
NATIONAL WEATHER SERVICE MIDLAND TX
900 AM CST MON DEC 05 2016

...IN SOUTHWEST TEXAS AND SOUTHEAST NEW MEXICO...

CITY           SKY/WX    TMP DP  RH WIND       PRES   REMARKS
ALPINE         CLOUDY    40  40  98 SW12      29.97R WCI  33
ANDREWS        FAIR      35  35 100 S6        29.87F WCI  30
ARTESIA        SUNNY     28  28 100 W5        29.84F WCI  23
BIG SPRING     CLOUDY    42  41  97 W3        29.89S
CARLSBAD       MOSUNNY   29  29 100 NE3       29.84F FOG
DRYDEN           N/A     46  44  93 SW7       29.91S
FORT STOCKTON  CLOUDY    43  43 100 S7        29.90S WCI  39
GUAD PASS      FOG       32  31  96 SW16G22   29.90F VSB 1/4 WCI  21
HOBBS          SUNNY     34  34 100 SW6       29.86R WCI  29
MARFA          CLOUDY    38  37  97 SW13      29.93F FOG     WCI  30
MIDLAND AIRPK  MOSUNNY   44  39  85 SW3       29.87F
MIDLAND INTL   PTSUNNY   42  38  85 SW7       29.87F WCI  38
ODESSA         MOSUNNY   42  37  82 W5        29.88F WCI  39
PECOS          FOG       37  37  99 S3        29.89F VSB 1/2
PRESIDIO       PTSUNNY   45  44  97 CALM      29.96S
SEMINOLE       SUNNY     35  34  96 SW5       29.87S WCI  31
SNYDER         MOSUNNY   39  38  96 CALM      29.88R
WINK           FOG       36  36 100 SE3       29.87F VSB 3/4
$$
...OTHER STATIONS IN TEXAS...

CITY           SKY/WX    TMP DP  RH WIND       PRES   REMARKS
ABILENE        CLOUDY    43  42  97 S6        29.90R WCI  39
AMARILLO       SUNNY     41  25  53 SW15G25   29.72F WCI  33
AUSTIN         LGT RAIN  49  48  97 NW6       29.90S FOG
BROWNSVILLE    CLOUDY    55  50  83 NW9       29.90R
CORPUS CHRISTI LGT RAIN  52  51  97 NW16      29.89R
DALLAS FTW     CLOUDY    49  42  77 E9        29.90F
DEL RIO        CLOUDY    49  48  97 NW7       29.94S
EL PASO        SUNNY     36  31  82 CALM      29.93F
HOUSTON INT    CLOUDY    51  50  96 N9        29.83F
LUBBOCK        SUNNY     36  32  85 SW7       29.83S WCI  30
SAN ANGELO     RAIN      46  44  93 CALM      29.91S FOG
SAN ANTONIO    LGT RAIN  49  47  93 NW7       29.90F FOG
WACO           CLOUDY    48  45  89 NE8       29.90S
WICHITA FALLS  NOT AVBL
$$
...OTHER LOCATIONS IN NEW MEXICO...

CITY           SKY/WX    TMP DP  RH WIND       PRES   REMARKS
ALAMAGORDO     NOT AVBL
ALBUQUERQUE    CLOUDY    31  15  52 CALM      29.92F
CANNON AFB     NOT AVBL
CLOVIS         CLOUDY    34  28  80 SW17      29.76F WCI  23
HOLLOMAN AFB   NOT AVBL
ROSWELL        FOG       26  25  96 SE6       29.83F VSB 1/4 WCI  19
RUIDOSO        CLOUDY    36  12  38 W9        29.91S WCI  29
SANTA FE       CLOUDY    26  17  68 N9        29.89S WCI  17
TRUTH OR CONSE SUNNY     34  18  52 W3        29.93R
TUCUMCARI      CLOUDY    41  21  44 SW16      29.71F WCI  33
$$

  • National Weather Service
  • Southern Region Headquarters
  • 819 Taylor Street, Room 10A06
  • Fort Worth, TX 76102
  • Page Author: NWS Fort Worth
  • Web Master: SR-SRH.Webmaster@noaa.gov
  •  
  • Page last modified: 30-Sep-2016 6:36 PM UTC
USA.gov is the U.S. government's official web portal to all federal, state and local government web resources and services.